Location: Boleita
(10.4833°N, 66.8167°W)
Time: 02:41:57
(UTC+00:00)

SL-16 R/B - Pass Details

Date: 08 November 2025
Orbit: 985 x 1006 km, 99.8° (Epoch: 09 December)

Event Time Altitude Azimuth Distance (km) Brightness Sun altitude
Rises 07:29:59 0° 138° (SE) 3,691 6.1 -41.4°
Reaches altitude 10° 07:32:55 10° 125° (SE) 2,745 5.4 -40.7°
Maximum altitude 07:37:44 24° 73° (ENE) 1,911 4.4 -39.5°
Enters shadow 07:40:04 20° 42° (NE) 2,140 4.5 -39.0°
